Location: Borgo
(42.3939°N, 9.2791°E)
Time: 00:40:43
(UTC+00:00)

Cosmos 1933 Rocket - Pass Details

Date: 27 February 2020
Orbit: 606 x 630 km, 82.5° (Epoch: 04 April)

Event Time Altitude Azimuth Distance (km) Brightness Sun altitude
Rises 17:53:25 0° 186° (S) 2,889 7.1 -8.9°
Reaches altitude 10° 17:55:38 10° 186° (S) 1,984 6.3 -9.3°
Maximum altitude 18:00:02 88° 99° (E) 625 3.5 -10.1°
Drops below altitude 10° 18:04:27 10° 9° (N) 1,985 6.1 -10.9°
Sets 18:06:40 0° 9° (N) 2,891 6.9 -11.3°
